Showing default

ESSA 5, 2757

Orbit data source: Space-Track

ESSA 5, 2757 is a payload satellite owned by ESSA (US) in SSO that was launched on Thu, 20 Apr 1967 UTC via a THOR DELTA E launch vehicle from the Air Force Western Test Range (AFWTR). Payload-class satellites include a variety of spacecraft equipped with specific instruments for various scientific and technological missions. These include communications satellites like Starlink; space stations such as the ISS; scientific satellites like the Hubble; Earth observation satellites from companies like Planet Labs, Umbra, and HawkEye 360; GPS; miniature CubeSats for education and research; and military/defense satellites.

Loading next visibility...
Identifier
2757, 1967-036A
Orbit
SSO
Country
Flag of USUS
Related business
Manufacturer
RCA/East Windsor
Mission
Non-operational spacecraft
Bus & Motor
TIROS I, Unknown motor
Mass
147 kg wet, 147 kg dry
Launch date (UTC)
1967-04-20 (59 years ago)
Launch vehicle
THOR DELTA E
Launch site
Air Force Western Test Range (AFWTR)
Object type
Payload
Rocket body
Debris
Shape & HBR
Unknown
Radar Cross Section
Medium (>0.1 m² and <1 m²)

Expand to show TLE details & history
Last TLE update: 6 hours ago

TLE from 6 hours ago
0 ESSA 5
1 02757U 67036A   26121.97176927 -.00000043  00000-0  27979-4 0  9999
2 02757 101.9899 302.7180 0042658 343.1628 171.3033 12.68542295733110
Epoch: 2026-05-01T23:19Z
TLE epoch observation values (Epoch: 2026-05-01T23:19:20.864Z)
Latitude
24.89506°
Longitude
-81.38714°
Altitude
1,423.363 km
Speed
7.136 km/s
True Right ascension
08h 33m 23s
True Declination
24° 46' 31"
Sunlit
Object was in daylight at epoch
Visualization orbit readout
Latitude
Unknown
Longitude
Unknown
Altitude
Unknown
Speed
Unknown
Apparent Right ascension
Unknown
Apparent Declination
Unknown
Sunlit
N/A
Visualization observer readout
Local Sidereal Time
13:04:25
Azimuth
Unknown
Elevation
Unknown
Doppler factor
Unknown
Orbital elements
Apogee altitude
1,418.538 km
Perigee altitude
1,352.303 km
Semi-major axis
7,763.557 km
Eccentricity
0.00427
Inclination
101.9899°
RAAN
302.718°
Arg. of periapsis
343.1628°
True anomaly
171.37682°
Mean anomaly
171.3033°
Eccentric anomaly
171.3401°
Mean motion
3.17287 °/min
Orbital period
113.46 mins
BSTAR
0.000027979
Loading maneuver chart data...
Computing Atmospheric mass density...
Loading historical data...
Loading historical data...
Loading historical data...
Loading historical data...
Loading historical data...
Loading historical data...
Loading historical data...
Other satellites on launch #36 in the year 1967 (1967-04-20 UTC)

Documentation

Showing up to 5 results
|